Location: D�rnast
(49.6426°N, 11.9755°E)
Time: 08:08:11
(UTC+00:00)

N. Korean satellite - Pass Details

Date: 07 December 2021
Orbit: 446 x 491 km, 97.3° (Epoch: 18 January)

Event Time Altitude Azimuth Distance (km) Brightness Sun altitude
Rises 03:19:01 0° 34° (NNE) 2,464 10.6 -33.8°
Reaches altitude 10° 03:22:33 10° 73° (ENE) 1,580 9.9 -33.2°
Maximum altitude 03:23:26 11° 88° (E) 1,530 9.9 -33.1°
Drops below altitude 10° 03:24:19 10° 104° (ESE) 1,576 9.9 -32.9°
Sets 03:27:48 0° 143° (SE) 2,442 10.5 -32.4°
